This demonstration page uses our WeatherBlox Daily Observations layout. Learn more.

Left ArrowRight Arrow

Hourly Observations for October 2, 2021

Temp ( °F °C ) Dew Point ( °F °C ) Humidity (%) Winds ( mph kmh ) Pressure ( in mb ) Visibility ( mi km ) Precip ( " mm )
12:56 am 00:56 Clear 54 12.2 53 11.7 97 97 SSW 3 6 30.09 1019 10 16 N/A
1:56 am 01:56 Clear 54 12.2 53 11.7 97 97 SW 5 7 30.09 1019 9 14 N/A
2:56 am 02:56 Clear 53 11.7 52 11.1 96 96 W 5 7 30.09 1019 10 16 N/A
3:56 am 03:56 Clear 54 12.2 53 11.7 97 97 NW 8 13 30.08 1019 10 16 N/A
4:56 am 04:56 Clear 53 11.7 52 11.1 96 96 WNW 7 11 30.08 1019 10 16 N/A
5:56 am 05:56 Clear 53 11.7 52 11.1 96 96 NNW 5 7 30.08 1019 10 16 N/A
6:56 am 06:56 Clear 53 11.7 52 11.1 96 96 W 6 9 30.09 1019 10 16 N/A
7:56 am 07:56 Sunny 52 11.1 51 10.6 97 97 W 3 6 30.10 1019 10 16 N/A
8:56 am 08:56 Mostly Sunny 56 13.3 54 12.2 93 93 SW 5 7 30.10 1019 10 16 N/A
9:53 am 09:53 Mostly Cloudy 57 14 55 13 94 94 N 7 11 30.08 1019 10 16 N/A
9:56 am 09:56 Mostly Cloudy 58 14.4 55 12.8 90 90 NNW 7 11 30.10 1019 10 16 N/A
10:37 am 10:37 Cloudy 61 16 55 13 83 83 WNW 8 13 30.08 1019 10 16 N/A
10:56 am 10:56 Cloudy 61 16.1 56 13.3 84 84 NW 10 17 30.10 1019 10 16 N/A
11:20 am 11:20 Cloudy 61 16 55 13 83 83 NW 10 17 30.08 1019 10 16 N/A
11:56 am 11:56 Cloudy 60 15.6 56 13.3 86 86 NNW 13 20 30.10 1019 10 16 N/A
12:56 pm 12:56 Cloudy 63 17.2 57 13.9 81 81 NNW 12 19 30.09 1019 10 16 N/A
1:35 pm 13:35 Cloudy 63 17 55 13 77 77 N 13 20 30.05 1018 10 16 N/A
1:56 pm 13:56 Cloudy 64 17.8 57 13.9 78 78 NNW 13 20 30.08 1019 10 16 N/A
2:56 pm 14:56 Mostly Cloudy 65 18.3 57 13.9 76 76 NNW 9 15 30.07 1018 10 16 N/A
3:56 pm 15:56 Mostly Cloudy 68 20 56 13.3 65 65 NW 10 17 30.05 1018 10 16 N/A
4:56 pm 16:56 Sunny 70 21.1 48 8.9 46 46 N 15 24 30.03 1017 10 16 N/A
5:56 pm 17:56 Sunny 68 20 48 8.9 49 49 N 8 13 30.03 1017 10 16 N/A
6:56 pm 18:56 Sunny 66 18.9 47 8.3 50 50 NNW 5 7 30.04 1017 10 16 N/A
7:56 pm 19:56 Clear 63 17.2 48 8.9 58 58 NNW 5 7 30.05 1018 10 16 N/A
8:56 pm 20:56 Clear 59 15 48 8.9 67 67 N N/A 30.06 1018 10 16 N/A
9:56 pm 21:56 Clear 55 12.8 49 9.4 80 80 N N/A 30.07 1018 10 16 N/A
10:56 pm 22:56 Clear 54 12.2 47 8.3 77 77 WNW 7 11 30.07 1018 10 16 N/A
11:56 pm 23:56 Clear 52 11.1 47 8.3 83 83 WNW 7 11 30.08 1019 10 16 N/A

Powered by AerisWeather